{"data":{"norad_id":28117,"intl_designator":"2003-057A","name":"UFO 11 (USA 174)","alt_names":[],"object_type":"PAYLOAD","status":"ACTIVE","operator":null,"country":"US","launch_date":"2003-12-18","launch_site_code":"AFETR","launch_vehicle":null,"mission":null,"orbit_class":"UNKNOWN","rcs_meters":10,"size_class":null,"mass_kg":null,"dimensions":null,"purposes":["comms"],"wikipedia_slug":null,"has_3d_model":false,"image_url":null,"decayed_at":null,"tle_current":{"epoch":"2026-05-24T17:50:05.757216Z","epoch_age_seconds":111450,"freshness":"FRESH","line1":"1 28117U 03057A   26144.74312219 -.00000109  00000+0  00000+0 0  9999","line2":"2 28117   8.9369  33.9479 0002465  38.1108 153.2802  1.00273183 82218","mean_motion":1.00273183,"eccentricity":0.0002465,"inclination_deg":8.9369,"raan_deg":33.9479,"arg_perigee_deg":38.1108,"mean_anomaly_deg":153.2802,"bstar":0,"rev_number":8221,"period_min":1436.0768820912,"perigee_km":35775.809545771,"apogee_km":35796.596565419,"semimajor_km":42164.340055595,"source":"CELESTRAK","updated_at":"2026-05-25T13:38:13.817347Z"}}}